Home > Time Zones > World Clock > Weather > U.S.A. > Yuma > Past weeks

Flag for U.S.A. Weather past 2 weeks in Yuma, Arizona, U.S.A.

Now
72 °F

Broken clouds.


Feels Like: 77 °F
Forecast: 61 / 83 °F
Wind: 21 mph from Northwest

Location: Yuma Marine Corps Air Station

Current Time: Apr 25, 2015 at 6:42:36 PM

Latest Report: Apr 25, 2015 at 5:57 PM


Visibility: 1 mi

Pressure: 29.75 "Hg

Humidity: 37%

Dew point: 44 °F

Location of YumaLocation

Historic Weather in Yuma — Graph

°F

Yuma temperature yesterday

Maximum temperature yesterday: 82 °F (at 3:57 PM)
Minimum temperature yesterday: 61 °F (at 5:57 AM)
Average temperature yesterday: 71 °F

Past Weeks' High & Low Weather Summary

 TemperatureHumidityPressure
High94 °F (Apr 14, 2:57 PM)76% (Apr 12, 5:57 AM)30.06 "Hg (Apr 12, 5:57 AM)
Low55 °F (Apr 17, 3:57 AM)7% (Apr 15, 2:57 PM)29.67 "Hg (Apr 20, 5:57 PM)
Average74 °F31%29.86 "Hg
* Reported Apr 10 4:57 PM — Apr 25 4:57 PM, Yuma, Weather by CustomWeather, © 2015

Note: Actual official high and low records may vary slightly from our data, if they occured in-between our weather recording intervals... More about our weather records

Advertising

Yuma weather history for previous 24 hours

 ConditionsComfort  
Time TempWeatherWind HumidityBarometerVisibility
4:57 PM
Sat, Apr 25
74 °FPartly sunny.21 mph35%29.76 "Hg2 mi
3:57 PM73 °FPartly sunny.14 mph34%29.79 "Hg3 mi
2:57 PM74 °FSunny.13 mph36%29.82 "Hg10 mi
1:57 PM76 °FSunny.16 mph32%29.83 "Hg10 mi
12:57 PM76 °FSunny.14 mph33%29.85 "Hg10 mi
11:57 AM75 °FSunny.10 mph32%29.87 "Hg10 mi
10:57 AM75 °FSunny.14 mph37%29.89 "Hg10 mi
8:57 AM69 °FScattered clouds.9 mph44%29.89 "Hg10 mi
7:57 AM67 °FScattered clouds.12 mph45%29.89 "Hg10 mi
6:57 AM64 °FSunny.3 mph49%29.88 "Hg10 mi
5:57 AM62 °FSunny.3 mph52%29.86 "Hg10 mi
4:57 AM63 °FClear.7 mph50%29.85 "Hg10 mi
3:57 AM63 °FClear.7 mph52%29.85 "Hg10 mi
2:57 AM64 °FClear.No wind52%29.85 "Hg10 mi
1:57 AM65 °FClear.3 mph52%29.87 "Hg10 mi
12:57 AM65 °FClear.No wind52%29.88 "Hg10 mi
11:57 PM
Fri, Apr 24
65 °FClear.No wind54%29.88 "Hg10 mi
10:57 PM66 °FPassing clouds.7 mph54%29.88 "Hg10 mi
9:57 PM67 °FPassing clouds.8 mph55%29.88 "Hg10 mi
8:57 PM69 °FPassing clouds.9 mph49%29.86 "Hg10 mi
7:57 PM74 °FPassing clouds.13 mph40%29.83 "Hg10 mi
6:57 PM79 °FPassing clouds.8 mph31%29.81 "Hg10 mi
Weather by CustomWeather, © 2015

See weather overviewHow to use our weather pages